Home > Weather > Iráklion > Past weeks

Flag for Greece Past Weather in Iráklion, Crete, Greece — Yesterday and Last 2 Weeks

Now
77 °F

Passing clouds.


Feels Like: 79 °F
Forecast: 70 / 81 °F
Wind: 12 mph from Northwest

Location: Heraklion Airport

Current Time: Jun 25, 2016 at 10:41:54 PM

Latest Report: Jun 25, 2016 at 9:50 PM


Visibility: N/A

Pressure: 29.77 "Hg

Humidity: 74%

Dew Point: 68 °F

Location of IráklionLocation

Past Weather in Iráklion — Graph

°F

Iráklion Temperature Yesterday

Maximum temperature yesterday: 84 °F (at 1:50 PM)
Minimum temperature yesterday: 73 °F (at 5:50 AM)
Average temperature yesterday: 80 °F

High & Low Weather Summary for the Past Weeks

 TemperatureHumidityPressure
High93 °F (Jun 19, 10:50 AM)94% (Jun 14, 6:20 AM)30.01 "Hg (Jun 14, 6:20 AM)
Low61 °F (Jun 12, 5:50 AM)18% (Jun 13, 1:50 PM)29.56 "Hg (Jun 14, 3:50 AM)
Average78 °F62%29.86 "Hg
* Reported Jun 10 9:20 PM — Jun 25 9:20 PM, Iráklion, Weather by CustomWeather, © 2016

Note: Actual official high and low records may vary slightly from our data, if they occured in-between our weather recording intervals... More about our weather records

Advertising

Iráklion Weather History for the Previous 24 Hours

Scroll right to see more
 ConditionsComfort  
Time TempWeatherWind HumidityBarometerVisibility
9:20 PM
Sat, Jun 25
77 °FScattered clouds.16 mph79%29.74 "HgN/A
8:50 PM77 °FScattered clouds.17 mph79%29.74 "HgN/A
8:20 PM79 °FScattered clouds.20 mph79%29.74 "HgN/A
7:50 PM79 °FPassing clouds.16 mph79%29.74 "HgN/A
7:20 PM81 °FPassing clouds.15 mph79%29.74 "HgN/A
6:50 PM81 °FPassing clouds.15 mph79%29.74 "HgN/A
6:20 PM81 °FPassing clouds.21 mph74%29.74 "HgN/A
5:50 PM81 °FPassing clouds.20 mph74%29.74 "HgN/A
5:20 PM82 °FPassing clouds.14 mph74%29.74 "HgN/A
4:50 PM82 °FPassing clouds.12 mph74%29.74 "HgN/A
4:20 PM82 °FPassing clouds.10 mph79%29.74 "HgN/A
3:50 PM82 °FPassing clouds.14 mph79%29.74 "HgN/A
3:20 PM84 °FPassing clouds.7 mph70%29.74 "HgN/A
2:50 PM84 °FPassing clouds.10 mph70%29.74 "HgN/A
2:20 PM84 °FSunny.9 mph66%29.74 "Hg10 mi
1:50 PM84 °FSunny.9 mph66%29.74 "Hg10 mi
1:20 PM82 °FSunny.9 mph70%29.74 "Hg10 mi
12:50 PM82 °FSunny.9 mph70%29.74 "Hg10 mi
12:20 PM82 °FSunny.9 mph70%29.74 "Hg10 mi
11:50 AM82 °FSunny.6 mph70%29.74 "Hg10 mi
11:20 AM82 °FSunny.No wind70%29.74 "Hg10 mi
10:50 AM82 °FSunny.No wind70%29.74 "Hg10 mi
10:20 AM84 °FSunny.No wind62%29.74 "Hg10 mi
9:50 AM84 °FSunny.No wind62%29.74 "Hg10 mi
9:20 AM82 °FSunny.No wind66%29.74 "Hg10 mi
8:50 AM81 °FSunny.No wind70%29.74 "Hg10 mi
8:20 AM75 °FSunny.5 mph69%29.71 "Hg10 mi
7:50 AM75 °FSunny.5 mph69%29.71 "Hg10 mi
7:20 AM73 °FSunny.5 mph74%29.71 "Hg10 mi
6:50 AM73 °FClear.6 mph74%29.71 "Hg10 mi
6:20 AM73 °FClear.3 mph74%29.71 "Hg10 mi
5:50 AM73 °FClear.3 mph74%29.71 "Hg10 mi
5:20 AM73 °FClear.5 mph74%29.71 "Hg10 mi
4:50 AM73 °FClear.3 mph74%29.71 "Hg10 mi
4:20 AM73 °FClear.5 mph74%29.71 "Hg10 mi
3:50 AM73 °FClear.6 mph74%29.71 "Hg10 mi
3:20 AM73 °FClear.5 mph74%29.74 "Hg10 mi
2:50 AM73 °FClear.6 mph74%29.74 "Hg10 mi
2:20 AM75 °FClear.5 mph65%29.74 "Hg10 mi
1:50 AM75 °FClear.3 mph65%29.74 "Hg10 mi
1:20 AM75 °FClear.2 mph65%29.74 "Hg10 mi
12:50 AM75 °FClear.3 mph65%29.74 "Hg10 mi
12:20 AM75 °FClear.3 mph74%29.77 "Hg10 mi
11:50 PM
Fri, Jun 24
75 °FClear.2 mph74%29.77 "Hg10 mi
11:20 PM77 °FClear.No wind69%29.77 "Hg10 mi
10:50 PM77 °FClear.No wind69%29.77 "Hg10 mi
10:20 PM79 °FClear.2 mph70%29.77 "Hg10 mi
Weather by CustomWeather, © 2016

See weather overviewHow to use our weather pages